AirNav   TITAN Aviation Fuels
 
 1515 users online  

CYAM Sault Ste Marie Airport
Sault Ste Marie, Ontario, Canada

GOING TO SAULT STE MARIE?


FAA INFORMATION EFFECTIVE 19 MAY 2022

The information below comes from the U.S. Federal Aviation Administration (FAA). The FAA is not the official source of data for facilities located outside the United States, and THESE RECORDS ARE LIKELY NOT COMPLETE OR CORRECT.

Location

FAA Identifier: CYAM
Lat/Long: 46-29-06.0000N 084-30-34.0000W
46-29.100000N 084-30.566667W
46.4850000,-84.5094444
(estimated)
Elevation: 630 ft. / 192 m (estimated)
Variation: 07W ()
From city: 8 miles WSW of SAULT STE MARIE,
Time zone: UTC -4 (UTC -5 during Standard Time)
Zip code: 49710

Airport Operations

Airport use: Open to the public
Activation date: 03/2005
Control tower: no
ARTCC: TORONTO CENTER
FSS: LONDON FIC FLIGHT SERVICE STATION
Attendance: 
Segmented circle: no

Airport Communications

WX ASOS at ANJ (6 nm E): 118.375 (906-253-9523)
WX AWOS-3PT at CIU (14 nm S): 127.575 (906-495-1160)

Nearby radio navigation aids

VOR radial/distance  VOR name  Freq  Var
SSMr303/9.2SAULT STE MARIE VOR/DME112.2004W

 
NDB name  Hdg/Dist  Freq  Var  ID
KOLOE015/9.240007WCI -.-. ..

Airport Services

Runway Information

Runway 4/22

Dimensions: 6000 x 200 ft. / 1829 x 61 m
Surface: asphalt
RUNWAY 4  RUNWAY 22
Traffic pattern: leftleft

Runway 12/30

Dimensions: 6000 x 200 ft. / 1829 x 61 m
Surface: asphalt
RUNWAY 12  RUNWAY 30
Traffic pattern: leftleft

Airport Ownership and Management from official FAA records

Ownership: Publicly-owned

Instrument Procedures

There are no published instrument procedures at CYAM.

Some nearby airports with instrument procedures:

KANJ - Sault Ste Marie Municipal Airport/Sanderson Field (6 nm E)
KCIU - Chippewa County International Airport (14 nm S)
83D - Mackinac County Airport (37 nm S)
KMCD - Mackinac Island Airport (38 nm S)
KERY - Luce County Airport (41 nm W)
 
Loc | Ops | Rwys | IFR | FBO | Links
Com | Nav | Svcs | Stats | Notes
Aerial photo
No photo
 
Airport distance calculator
Flying to Sault Ste Marie Airport? Find the distance to fly.

From to CYAM

Sunrise and sunset
Times for 26-May-2022
 Local
(UTC-4)
 Zulu
(UTC)
Morning civil twilight05:1709:17
Sunrise05:5409:54
Sunset21:1601:16
Evening civil twilight21:5301:53

Current date and time
Zulu (UTC)  26-May-2022 15:31:41
Local (UTC-4)  26-May-2022 11:31:41
 
METAR
CYAM 261500Z 09004KT 3SM -SHRA BR FEW001 SCT005 BKN009 OVC022 13/13 A2972 RMK SF1CU4CU3SC1 SF TR VIS VRB 2-4 CIG VRB 3-7 SLP069 DENSITY ALT 800FT
KANJ 
6nm E 
261455Z AUTO 13003KT 5SM -RA BR OVC003 13/12 A2972 RMK AO2 SLP064 P0005 60012 T01330117 58001
KCIU 
14nm S 
261517Z AUTO 21005KT 1 3/4SM BR OVC003 14/14 A2972 RMK AO2 RAE01 P0000
TAF
CYAM 261340Z 2614/2702 09006KT 1SM -RA BR OVC003 TEMPO 2614/2620 3SM -RA BR OVC006 BECMG 2615/2617 VRB03KT FM262000 31010KT 1SM -DZ BR OVC003 TEMPO 2620/2702 3SM BR OVC006 RMK NXT FCST BY 262000Z
NOTAMs
Click for the latest NOTAMs
NOTAMs are issued by the DoD/FAA and will open in a separate window not controlled by AirNav.

 

 
 

Would you like to see your business listed on this page?

 If your business provides an interesting product or service to pilots, flight crews, aircraft, or users of the Sault Ste Marie Airport, you should consider listing it here.  To start the listing process, click on the button below
 
Add a business
 

Other Pages about Sault Ste Marie Airport

Update a link
 
Copyright © AirNav, LLC. All rights reserved. Privacy Policy  Contact